![]() |
EMODnet Physics ERDDAP
Easier access to scientific data |
log in|
Brought to you by EMODnet Physics |
| Dataset Title: | NDBC - Collection of dew point temperature (DEWT) TimeSeries - IN SITU MultiPointTimeSeriesObservation
|
| Institution: | NDBC (Dataset ID: TS_DEWT_NDBC) |
| Information: | Summary
| License
| FGDC
| ISO 19115
| Metadata
| Background
| Subset
| Data Access Form
| Make a graph
|
| Name | Last modified | Size | Description | |
|---|---|---|---|---|
| Parent Directory | - | - | ||
| SIPF1_TS_DEWT_012014.nc | 27-Oct-2024 20:50 | 440164 | ||
| SIPF1_TS_DEWT_012015.nc | 27-Oct-2024 20:50 | 440111 | ||
| SIPF1_TS_DEWT_012016.nc | 27-Oct-2024 20:50 | 440208 | ||
| SIPF1_TS_DEWT_012017.nc | 27-Oct-2024 20:50 | 439029 | ||
| SIPF1_TS_DEWT_012018.nc | 27-Oct-2024 20:50 | 439973 | ||
| SIPF1_TS_DEWT_012019.nc | 27-Oct-2024 20:50 | 439890 | ||
| SIPF1_TS_DEWT_012020.nc | 27-Oct-2024 20:50 | 587287 | ||
| SIPF1_TS_DEWT_012021.nc | 27-Oct-2024 20:50 | 587314 | ||
| SIPF1_TS_DEWT_012022.nc | 27-Oct-2024 20:50 | 429513 | ||
| SIPF1_TS_DEWT_012024.nc | 16-Sep-2024 16:51 | 439622 | ||
| SIPF1_TS_DEWT_022013.nc | 27-Oct-2024 20:50 | 419640 | ||
| SIPF1_TS_DEWT_022014.nc | 27-Oct-2024 20:50 | 439969 | ||
| SIPF1_TS_DEWT_022015.nc | 27-Oct-2024 20:51 | 424494 | ||
| SIPF1_TS_DEWT_022016.nc | 27-Oct-2024 20:51 | 440029 | ||
| SIPF1_TS_DEWT_022017.nc | 27-Oct-2024 20:51 | 439010 | ||
| SIPF1_TS_DEWT_022018.nc | 27-Oct-2024 20:51 | 439744 | ||
| SIPF1_TS_DEWT_022019.nc | 27-Oct-2024 20:51 | 439947 | ||
| SIPF1_TS_DEWT_022020.nc | 27-Oct-2024 20:51 | 438896 | ||
| SIPF1_TS_DEWT_022021.nc | 27-Oct-2024 20:51 | 437869 | ||
| SIPF1_TS_DEWT_022022.nc | 27-Oct-2024 20:51 | 438998 | ||
| SIPF1_TS_DEWT_022023.nc | 27-Oct-2024 20:51 | 440131 | ||
| SIPF1_TS_DEWT_022024.nc | 16-Sep-2024 16:51 | 440222 | ||
| SIPF1_TS_DEWT_032013.nc | 27-Oct-2024 20:51 | 429867 | ||
| SIPF1_TS_DEWT_032014.nc | 27-Oct-2024 20:51 | 439584 | ||
| SIPF1_TS_DEWT_032015.nc | 27-Oct-2024 20:51 | 587013 | ||
| SIPF1_TS_DEWT_032016.nc | 27-Oct-2024 20:51 | 428381 | ||
| SIPF1_TS_DEWT_032017.nc | 27-Oct-2024 20:51 | 587183 | ||
| SIPF1_TS_DEWT_032018.nc | 27-Oct-2024 20:51 | 439685 | ||
| SIPF1_TS_DEWT_032019.nc | 27-Oct-2024 20:52 | 586926 | ||
| SIPF1_TS_DEWT_032020.nc | 27-Oct-2024 20:52 | 587161 | ||
| SIPF1_TS_DEWT_032021.nc | 27-Oct-2024 20:52 | 439333 | ||
| SIPF1_TS_DEWT_032022.nc | 27-Oct-2024 20:52 | 439657 | ||
| SIPF1_TS_DEWT_032023.nc | 27-Oct-2024 20:52 | 439895 | ||
| SIPF1_TS_DEWT_042013.nc | 27-Oct-2024 20:52 | 587290 | ||
| SIPF1_TS_DEWT_042014.nc | 27-Oct-2024 20:52 | 587302 | ||
| SIPF1_TS_DEWT_042015.nc | 27-Oct-2024 20:52 | 429863 | ||
| SIPF1_TS_DEWT_042016.nc | 27-Oct-2024 20:52 | 424528 | ||
| SIPF1_TS_DEWT_042017.nc | 27-Oct-2024 20:52 | 586926 | ||
| SIPF1_TS_DEWT_042018.nc | 27-Oct-2024 20:52 | 587090 | ||
| SIPF1_TS_DEWT_042019.nc | 27-Oct-2024 20:52 | 586922 | ||
| SIPF1_TS_DEWT_042020.nc | 27-Oct-2024 20:52 | 437345 | ||
| SIPF1_TS_DEWT_042021.nc | 27-Oct-2024 20:52 | 439669 | ||
| SIPF1_TS_DEWT_042022.nc | 27-Oct-2024 20:52 | 438458 | ||
| SIPF1_TS_DEWT_042023.nc | 27-Oct-2024 20:52 | 437614 | ||
| SIPF1_TS_DEWT_052013.nc | 27-Oct-2024 20:53 | 439874 | ||
| SIPF1_TS_DEWT_052014.nc | 27-Oct-2024 20:53 | 438351 | ||
| SIPF1_TS_DEWT_052015.nc | 27-Oct-2024 20:53 | 440300 | ||
| SIPF1_TS_DEWT_052016.nc | 27-Oct-2024 20:53 | 587276 | ||
| SIPF1_TS_DEWT_052017.nc | 27-Oct-2024 20:53 | 587277 | ||
| SIPF1_TS_DEWT_052018.nc | 27-Oct-2024 20:53 | 426665 | ||
| SIPF1_TS_DEWT_052019.nc | 27-Oct-2024 20:53 | 428355 | ||
| SIPF1_TS_DEWT_052020.nc | 27-Oct-2024 20:53 | 429493 | ||
| SIPF1_TS_DEWT_052022.nc | 27-Oct-2024 20:53 | 425428 | ||
| SIPF1_TS_DEWT_052023.nc | 27-Oct-2024 20:53 | 436474 | ||
| SIPF1_TS_DEWT_062013.nc | 27-Oct-2024 20:53 | 424624 | ||
| SIPF1_TS_DEWT_062014.nc | 27-Oct-2024 20:53 | 439970 | ||
| SIPF1_TS_DEWT_062015.nc | 27-Oct-2024 20:53 | 440040 | ||
| SIPF1_TS_DEWT_062016.nc | 27-Oct-2024 20:53 | 434440 | ||
| SIPF1_TS_DEWT_062017.nc | 27-Oct-2024 20:54 | 433981 | ||
| SIPF1_TS_DEWT_062018.nc | 27-Oct-2024 20:54 | 439341 | ||
| SIPF1_TS_DEWT_062019.nc | 27-Oct-2024 20:54 | 440201 | ||
| SIPF1_TS_DEWT_062022.nc | 27-Oct-2024 20:54 | 438624 | ||
| SIPF1_TS_DEWT_062023.nc | 27-Oct-2024 20:54 | 440211 | ||
| SIPF1_TS_DEWT_072013.nc | 27-Oct-2024 20:54 | 440223 | ||
| SIPF1_TS_DEWT_072014.nc | 27-Oct-2024 20:54 | 440290 | ||
| SIPF1_TS_DEWT_072015.nc | 27-Oct-2024 20:54 | 429237 | ||
| SIPF1_TS_DEWT_072016.nc | 27-Oct-2024 20:54 | 429380 | ||
| SIPF1_TS_DEWT_072017.nc | 27-Oct-2024 20:54 | 429646 | ||
| SIPF1_TS_DEWT_072018.nc | 27-Oct-2024 20:54 | 439396 | ||
| SIPF1_TS_DEWT_072019.nc | 27-Oct-2024 20:55 | 439315 | ||
| SIPF1_TS_DEWT_072020.nc | 27-Oct-2024 20:55 | 440391 | ||
| SIPF1_TS_DEWT_072023.nc | 27-Oct-2024 20:55 | 587221 | ||
| SIPF1_TS_DEWT_082013.nc | 27-Oct-2024 20:55 | 587071 | ||
| SIPF1_TS_DEWT_082014.nc | 27-Oct-2024 20:55 | 433567 | ||
| SIPF1_TS_DEWT_082015.nc | 27-Oct-2024 20:55 | 440080 | ||
| SIPF1_TS_DEWT_082016.nc | 27-Oct-2024 20:55 | 587188 | ||
| SIPF1_TS_DEWT_082017.nc | 27-Oct-2024 20:55 | 587017 | ||
| SIPF1_TS_DEWT_082018.nc | 27-Oct-2024 20:55 | 439192 | ||
| SIPF1_TS_DEWT_082019.nc | 27-Oct-2024 20:55 | 587196 | ||
| SIPF1_TS_DEWT_082020.nc | 27-Oct-2024 20:55 | 587316 | ||
| SIPF1_TS_DEWT_082022.nc | 27-Oct-2024 20:55 | 587393 | ||
| SIPF1_TS_DEWT_082023.nc | 27-Oct-2024 20:56 | 429523 | ||
| SIPF1_TS_DEWT_092013.nc | 27-Oct-2024 20:56 | 429521 | ||
| SIPF1_TS_DEWT_092014.nc | 27-Oct-2024 20:56 | 421462 | ||
| SIPF1_TS_DEWT_092015.nc | 27-Oct-2024 20:56 | 439962 | ||
| SIPF1_TS_DEWT_092016.nc | 27-Oct-2024 20:56 | 439176 | ||
| SIPF1_TS_DEWT_092018.nc | 27-Oct-2024 20:56 | 439987 | ||
| SIPF1_TS_DEWT_092019.nc | 27-Oct-2024 20:56 | 438105 | ||
| SIPF1_TS_DEWT_092020.nc | 27-Oct-2024 20:56 | 440033 | ||
| SIPF1_TS_DEWT_092022.nc | 27-Oct-2024 20:56 | 439609 | ||
| SIPF1_TS_DEWT_092023.nc | 27-Oct-2024 20:56 | 439554 | ||
| SIPF1_TS_DEWT_102013.nc | 27-Oct-2024 20:56 | 439813 | ||
| SIPF1_TS_DEWT_102014.nc | 27-Oct-2024 20:56 | 440030 | ||
| SIPF1_TS_DEWT_102015.nc | 27-Oct-2024 20:57 | 439447 | ||
| SIPF1_TS_DEWT_102016.nc | 27-Oct-2024 20:57 | 436908 | ||
| SIPF1_TS_DEWT_102017.nc | 27-Oct-2024 20:57 | 440205 | ||
| SIPF1_TS_DEWT_102018.nc | 27-Oct-2024 20:57 | 440239 | ||
| SIPF1_TS_DEWT_102019.nc | 27-Oct-2024 20:57 | 440232 | ||
| SIPF1_TS_DEWT_102020.nc | 27-Oct-2024 20:57 | 429814 | ||
| SIPF1_TS_DEWT_102022.nc | 27-Oct-2024 20:57 | 428871 | ||
| SIPF1_TS_DEWT_102023.nc | 27-Oct-2024 20:57 | 439858 | ||
| SIPF1_TS_DEWT_112013.nc | 27-Oct-2024 20:57 | 439731 | ||
| SIPF1_TS_DEWT_112014.nc | 27-Oct-2024 20:57 | 428747 | ||
| SIPF1_TS_DEWT_112015.nc | 27-Oct-2024 20:57 | 440059 | ||
| SIPF1_TS_DEWT_112016.nc | 27-Oct-2024 20:57 | 587191 | ||
| SIPF1_TS_DEWT_112017.nc | 27-Oct-2024 20:57 | 437463 | ||
| SIPF1_TS_DEWT_112018.nc | 27-Oct-2024 20:57 | 587230 | ||
| SIPF1_TS_DEWT_112019.nc | 27-Oct-2024 20:57 | 439985 | ||
| SIPF1_TS_DEWT_112020.nc | 27-Oct-2024 20:58 | 586795 | ||
| SIPF1_TS_DEWT_112022.nc | 27-Oct-2024 20:58 | 439754 | ||
| SIPF1_TS_DEWT_112023.nc | 16-Sep-2024 16:51 | 439539 | ||
| SIPF1_TS_DEWT_122013.nc | 27-Oct-2024 20:58 | 587311 | ||
| SIPF1_TS_DEWT_122014.nc | 27-Oct-2024 20:58 | 586999 | ||
| SIPF1_TS_DEWT_122015.nc | 27-Oct-2024 20:58 | 587304 | ||
| SIPF1_TS_DEWT_122016.nc | 27-Oct-2024 20:58 | 429782 | ||
| SIPF1_TS_DEWT_122017.nc | 27-Oct-2024 20:58 | 429892 | ||
| SIPF1_TS_DEWT_122018.nc | 27-Oct-2024 20:58 | 429391 | ||
| SIPF1_TS_DEWT_122019.nc | 27-Oct-2024 20:58 | 430315 | ||
| SIPF1_TS_DEWT_122020.nc | 27-Oct-2024 20:59 | 587130 | ||
| SIPF1_TS_DEWT_122023.nc | 16-Sep-2024 16:51 | 587403 | ||